Location: Unspecified
(48.1170°N, 0.0000°E)
Time: 06:51:01
(UTC+00:00)

JY1SAT - Visible Passes

Search period start: 17 September 2019 00:00
Search period end: 27 September 2019 00:00
Orbit: 570 x 592 km, 97.7° (Epoch: 17 September)

Date Brightness Start Highest point End Pass type
(mag) Time Alt. Az. Time Alt. Az. Time Alt. Az.
17 Sep ? 20:35:13 14° NE 20:35:13 14° NE 20:36:21 10° NNE visible
17 Sep ? 22:11:36 17° NNW 22:11:36 17° NNW 22:12:36 10° NNW visible
18 Sep ? 20:40:45 15° NNE 20:40:45 15° NNE 20:41:52 10° NNE visible
18 Sep ? 22:17:07 15° NNW 22:17:07 15° NNW 22:17:54 10° NNW visible
19 Sep ? 20:46:16 15° NNE 20:46:16 15° NNE 20:47:22 10° NNE visible
19 Sep ? 22:22:38 13° NNW 22:22:38 13° NNW 22:23:12 10° NNW visible
20 Sep ? 20:51:47 15° NNE 20:51:47 15° NNE 20:52:50 10° N visible
20 Sep ? 22:28:09 12° NNW 22:28:09 12° NNW 22:28:29 10° NNW visible
21 Sep ? 20:57:18 15° NNE 20:57:18 15° NNE 20:58:18 10° N visible
21 Sep ? 22:33:41 10° NNW 22:33:41 10° NNW 22:33:45 10° NNW visible
22 Sep ? 21:02:50 15° NNE 21:02:50 15° NNE 21:03:44 10° N visible
23 Sep ? 21:08:21 15° N 21:08:21 15° N 21:09:10 10° N visible
24 Sep ? 21:13:52 14° N 21:13:52 14° N 21:14:36 10° N visible
25 Sep ? 21:19:24 14° N 21:19:24 14° N 21:20:00 10° N visible
26 Sep ? 21:24:56 13° N 21:24:56 13° N 21:25:25 10° N visible
